SCP
0 -0 0 0 0 0 0 0 -0 0 0 0 0 0 0 0 0 0 0 0 0 0 -0 -0 -0 -0 -0 -0 -0 0 -0 -0 0 -0 -0 -0 -0 -0 0 0 0 0 -0 0 -0 -0 -0 -0 -0
0 0 0 0 0 0 0 -0 0 0 0 0 0 0 0 0 0 0 0 0 0 0 0 -0 0 -0 -0 -0 -0 -0 0 -0 -0 -0 -0 -0 -0 -0 -0 0 0 0 0 0 -0 -0 -0 -0 -0
0 0 0 0 0 -0 0 0 0 -0 0 0 0 0 0 0 0 0 0 0 0 0 0 0 0 0 -0 -0 -0 -0 0 -0 -0 -0 -0 -0 -0 -0 -0 0 0 0 0 0 0 0 0 0 0
0 0 0 0 0 0 0 0 0 -0 -0 -0 -0 0 0 0 0 0 -0 -0 0 0 0 0 0 0 -0 -0 -0 -0 -0 0 -0 -0 0 0 -0 -0 -0 0 0 0 0 0 0 0 0 0 0
0 0 0 0 0 0 0 0 0 0 0 -0 -0 0 0 0 0 0 -0 -0 -0 0 0 0 0 0 0 0 0 0 -0 0 0 0 0 0 -0 0 -0 -0 -0 0 0 0 0 0 0 0 0
0 0 0 0 0 0 0 0 0 0 0 0 -0 0 0 0 0 0 -0 -0 -0 0 0 0 0 0 0 0 0 0 0 0 0 0 0 0 0 0 0 0 0 -0 0 0 0 0 0 0 0
0 0 0 0 0 0 0 0 0 0 0 0 0 -0 0 0 0 0 0 0 -0 -0 0 0 0 0 0 0 0 0 0 0 0 0 0 0 0 0 0 0 0 0 0 0 0 0 0 0 0
0 0 0 0 0 0 0 0 0 0 0 0 0 0 0 -0 0 0 0 0 0 0 -0 -0 0 -0 -0 0 0 0 0 0 0 0 0 0 0 0 0 0 0 0 0 0 0 0 0 0 0
0 0 0 0 0 0 0 0 0 0 0 0 0 0 0 -0 -0 -0 -0 0 0 0 0 0 -0 0 0 0 0 0 0 0 0 0 0 0 0 0 0 0 0 0 0 0 0 0 0 0 0
0 0 0 0 0 0 0 0 0 0 0 0 0 0 0 -0 -0 -0 -0 -0 -0 0 0 0 0 0 0 0 0 0 0 0 0 0 0 0 0 0 0 0 0 0 0 0 0 0 0 0 0
0 0 0 0 0 0 0 0 0 0 0 0 0 0 0 0 0 -0 -0 -0 -0 -0 0 0 0 0 0 0 0 0 0 0 0 0 0 0 0 0 0 0 0 0 0 0 0 0 0 0 0
0 0 0 0 0 0 0 0 0 0 0 0 0 0 0 0 0 0 -0 -0 -0 -0 -0 0 -0 0 0 0 0 0 0 0 0 0 0 0 0 0 0 0 0 0 0 0 0 0 0 0 0
0 0 0 0 0 0 0 0 0 0 0 0 0 0 0 0 0 0 0 0 0 -0 -0 -0 0 0 0 0 0 0 0 0 0 0 0 0 0 0 0 0 0 0 0 0 0 0 0 0 0
0 0 0 0 0 0 0 0 0 0 0 0 0 0 0 0 0 0 0 0 0 0 -0 -0 -0 0 0 0 0 0 0 0 0 0 0 0 0 0 0 0 0 0 0 0 0 0 0 0 0
0 0 0 0 0 0 0 0 0 0 0 0 0 0 0 0 0 0 0 0 0 0 0 0 -0 0 0 0 0 0 0 0 0 0 0 0 0 0 0 0 0 0 0 0 0 0 0 0 0
0 0 0 0 0 0 0 0 0 0 0 0 0 0 0 0 0 0 0 0 0 0 0 0 0 0 0 0 0 0 0 0 0 0 0 0 0 0 0 0 0 0 0 0 0 0 0 0 0
0 0 0 0 0 0 0 0 0 0 0 0 0 0 0 0 0 0 0 0 0 0 0 0 0 0 0 0 0 0 0 0 0 0 0 0 0 0 0 0 0 0 0 0 0 0 0 0 0
0 0 0 0 0 0 0 0 0 0 0 0 0 0 0 0 0 0 0 0 0 0 0 0 0 0 0 0 0 0 0 0 0 0 0 0 0 0 0 0 0 0 0 0 0 0 0 0 0
0 0 0 0 0 0 0 0 0 0 0 0 0 0 0 0 0 0 0 0 0 0 0 0 0 0 0 0 0 0 0 0 0 0 0 0 0 0 0 0 0 0 0 0 0 0 0 0 0
0 0 0 0 0 0 0 0 0 0 0 0 0 0 0 0 0 0 0 0 0 0 0 0 0 0 0 0 0 0 0 0 0 0 0 0 0 0 0 0 0 0 0 0 0 0 0 0 0
0 0 0 0 0 0 0 0 0 0 0 0 0 0 0 0 0 0 0 0 0 0 0 0 0 0 0 0 0 0 0 0 0 0 0 0 0 0 0 0 0 0 0 0 0 0 0 0 0
0 0 0 0 0 0 0 0 0 0 0 0 0 0 0 0 0 0 0 0 0 0 0 0 0 0 0 0 1 0 0 0 0 0 0 0 0 0 0 0 0 0 0 0 0 0 0 0 0
0 0 0 0 0 0 0 0 0 0 0 0 0 0 0 0 0 0 0 0 0 0 0 0 0 0 0 1 0 1 0 0 0 0 1 0 0 0 0 0 0 0 0 0 0 0 0 0 0
0 0 0 0 0 0 0 0 0 0 0 0 0 0 0 0 0 0 0 0 0 0 0 0 0 0 0 1 0 1 0 1 1 1 1 0 0 0 0 0 0 0 0 0 0 0 0 0 0
0 0 0 0 0 0 0 0 0 0 0 0 0 0 0 0 0 0 0 0 0 0 0 0 0 0 0 0 0 0 0 0 0 0 0 0 0 0 0 0 0 0 0 0 0 0 0 0 0
0 0 0 0 0 0 0 0 0 0 0 0 0 0 0 0 0 0 0 0 0 0 0 0 0 0 0 0 0 0 0 0 0 0 0 0 0 0 0 0 0 0 0 0 0 0 0 0 0
0 0 0 0 0 0 0 0 0 0 0 0 0 0 0 0 0 0 0 0 0 0 0 0 0 0 0 0 0 0 0 0 0 0 0 0 0 0 0 0 0 0 0 0 0 0 0 0 0
0 0 0 0 0 0 0 0 0 0 0 0 0 0 0 0 0 0 0 0 0 0 0 0 0 0 0 0 0 0 0 0 0 0 0 0 0 0 0 0 0 0 0 0 0 0 0 0 0
0 0 0 0 0 0 0 0 0 0 0 0 0 0 0 0 0 0 0 0 0 0 0 0 0 0 0 0 0 0 0 0 0 0 0 0 0 0 0 0 0 0 0 0 0 0 0 0 0
0 0 0 0 0 0 0 0 0 0 0 0 0 0 0 0 0 0 0 0 0 0 0 0 0 0 0 0 0 0 0 0 0 0 0 0 0 0 0 0 0 0 0 0 0 0 0 0 0
Wind_Speed_500mb
33 14 10 9 12 13 22 7 10 6 5 12 17 9 12 15 5 6 22 20 41 44 48 44 37 30 34 34 35 33 32 34 35 32 26 23 18 14 12 9 9 16 19 18 16 18 21 26 23
16 9 7 12 13 19 16 13 14 12 8 13 16 9 8 14 13 18 26 36 43 43 47 44 39 35 35 33 34 33 34 35 34 31 25 20 15 13 10 12 14 17 23 22 20 23 25 25 24
16 9 19 9 21 22 2 10 9 17 15 20 13 10 3 11 13 25 18 42 46 41 43 43 41 41 39 32 33 35 37 33 31 31 26 20 15 14 15 18 18 20 23 21 20 22 22 22 21
8 10 13 16 24 25 12 10 2 17 16 15 15 12 8 9 14 17 35 45 44 40 43 42 42 43 39 34 33 34 35 30 29 26 23 17 14 14 18 19 20 20 21 20 18 20 18 18 18
13 16 17 22 30 19 5 5 6 16 20 23 18 9 7 8 16 26 44 45 44 48 41 45 44 41 38 35 33 33 31 23 18 18 19 16 14 16 17 13 10 18 19 17 15 15 14 13 12
16 12 18 26 27 19 10 8 10 18 17 17 18 8 12 11 23 33 40 43 40 42 36 48 46 39 37 36 33 31 27 19 16 10 7 17 19 22 22 18 12 8 14 15 13 12 10 8 7
15 14 27 28 18 12 16 2 15 18 17 17 2 16 11 18 24 34 37 39 39 38 39 46 47 44 37 35 36 32 28 22 18 11 12 18 17 18 18 21 18 13 10 12 11 9 8 6 5
7 6 27 19 23 25 5 6 7 19 20 6 7 9 14 27 32 33 36 35 40 37 38 41 43 45 43 40 38 35 32 28 24 19 19 16 21 19 19 17 27 22 14 11 11 11 10 9 8
8 11 20 29 18 17 1 9 1 5 6 14 14 4 14 37 39 37 38 38 41 41 41 39 38 39 38 39 40 36 32 30 29 27 26 24 16 20 17 16 22 26 24 15 16 16 14 11 10
24 20 28 17 14 14 19 14 14 10 22 19 17 10 28 35 44 46 50 45 43 45 44 43 41 39 44 39 39 38 37 36 34 33 32 30 18 16 16 20 21 21 18 14 16 17 14 11 6
19 31 29 20 20 22 23 23 14 17 21 25 27 25 33 36 41 46 48 44 45 48 52 44 47 43 42 42 36 33 32 33 34 33 32 27 24 28 34 23 24 22 21 17 17 18 15 10 16
24 31 40 21 17 15 26 29 22 23 19 6 7 33 35 39 42 45 44 41 45 44 52 57 44 47 43 39 36 32 32 32 30 32 32 31 31 29 22 20 18 19 20 20 21 19 21 22 22
29 37 37 44 25 23 32 34 34 32 22 9 4 24 33 34 37 37 38 38 41 46 46 58 54 50 48 43 39 35 33 33 29 29 32 31 27 26 24 23 21 21 20 20 20 20 22 23 23
11 32 45 38 32 17 25 39 16 27 27 23 16 20 29 33 36 35 39 42 44 46 47 50 61 53 47 47 40 39 36 32 30 31 31 33 27 27 25 24 23 22 23 22 22 21 21 23 25
23 19 24 41 43 27 18 39 39 47 27 19 28 25 24 32 34 41 39 41 42 42 43 47 56 61 52 50 46 40 36 33 33 35 33 33 33 29 26 24 23 22 23 25 26 27 29 28 27
21 26 33 25 36 17 25 34 29 51 40 38 38 30 35 30 35 38 39 39 40 41 44 44 51 59 61 56 48 47 41 38 36 34 35 37 35 32 29 29 28 25 25 26 25 25 25 27 25
18 28 38 34 23 26 31 25 36 24 16 36 42 42 38 32 35 34 39 40 40 41 41 45 49 51 56 57 48 45 43 44 41 37 35 35 37 35 33 31 31 27 30 30 30 29 29 29 30
19 31 36 31 27 25 34 32 29 5 15 33 33 29 37 44 39 35 35 39 40 40 42 42 44 48 50 52 51 44 43 43 42 38 36 34 33 32 31 28 24 25 27 29 33 34 32 30 28
12 18 24 22 9 11 35 37 36 41 26 24 19 25 38 38 37 33 33 35 38 41 44 46 45 47 50 53 55 54 51 47 41 38 40 38 36 34 32 31 28 28 28 24 24 23 26 28 26
27 22 21 22 7 11 26 29 33 33 38 48 45 45 35 28 29 34 35 39 38 41 44 47 46 42 47 50 56 60 58 45 38 41 43 42 39 36 36 35 33 32 29 27 26 28 27 31 27
30 31 24 9 7 18 23 36 39 36 47 45 43 47 45 46 37 25 25 30 35 38 44 46 46 46 46 46 48 53 38 40 44 52 47 44 41 41 41 39 35 34 31 30 31 32 35 37 35
32 27 29 26 11 13 7 15 23 30 27 25 40 43 42 38 32 32 31 21 24 36 39 43 45 46 47 49 49 53 59 48 49 39 40 40 42 44 41 39 37 33 31 36 37 36 37 37 41
26 25 20 24 22 23 33 16 24 21 21 23 19 11 17 15 17 19 18 29 39 39 40 48 44 43 46 50 54 53 57 46 33 30 34 38 39 38 38 37 37 36 36 39 39 38 38 39 39
8 14 13 15 18 23 36 27 22 26 24 13 12 8 4 3 1 8 16 22 29 39 43 45 44 47 44 45 49 50 49 46 36 44 44 35 38 36 40 43 42 42 41 40 39 37 36 37 42
26 25 11 12 13 19 5 25 33 9 7 3 6 2 7 8 4 2 5 10 15 20 28 35 34 38 47 49 48 53 52 50 45 48 44 39 42 49 46 46 42 43 44 45 43 40 37 38 40
35 34 12 14 16 19 12 17 9 4 10 6 5 8 9 11 8 4 1 3 7 11 18 29 43 47 49 54 57 56 54 52 47 45 45 45 46 48 48 47 48 49 44 43 43 41 41 42 43
27 37 31 10 4 5 14 17 6 11 10 10 9 8 9 11 11 10 8 8 7 7 13 20 28 35 39 44 45 46 48 48 47 43 38 37 38 39 41 40 37 33 33 35 35 35 35 38 40
33 25 24 15 13 18 20 26 19 18 21 15 14 11 11 12 12 15 16 17 18 18 17 17 20 24 30 33 31 32 33 35 35 32 31 31 32 29 30 27 26 25 24 26 27 27 30 34 38
28 22 19 20 20 16 21 22 11 18 19 19 12 12 14 15 15 16 18 22 27 28 28 29 28 28 27 28 30 30 30 29 28 27 26 25 23 22 21 20 20 21 22 23 23 23 25 26 28
38 40 33 13 20 21 14 11 3 10 7 14 18 19 17 17 16 17 19 22 27 29 31 33 33 33 33 31 30 28 27 25 23 21 19 17 16 15 15 16 16 16 16 17 18 19 20 21 23
Wind_Direction_500mb
359 24 171 208 233 232 248 201 249 181 196 162 164 166 192 349 2 18 139 151 158 158 167 171 168 168 159 154 156 159 155 152 149 149 156 160 157 150 164 167 160 158 155 147 131 119 104 127 131
354 19 216 255 248 216 220 168 191 188 103 160 160 179 189 108 70 115 142 146 153 158 167 171 169 166 157 156 155 155 148 147 148 156 165 169 172 178 181 164 150 149 132 128 127 122 111 122 128
356 311 258 227 234 254 10 141 190 132 149 166 181 237 111 93 115 139 158 152 154 164 161 172 168 165 165 162 157 151 149 157 161 172 179 180 185 180 168 157 154 147 142 137 135 128 120 122 125
315 245 243 245 233 246 289 76 355 152 160 189 218 194 122 98 143 156 154 152 153 160 173 173 168 167 168 170 162 157 159 166 176 173 178 181 177 176 165 157 154 139 139 142 137 136 127 121 120
288 254 250 232 246 247 243 301 285 191 184 184 205 171 111 132 134 145 150 154 157 170 173 174 169 169 173 174 170 167 169 173 186 172 180 173 159 139 142 139 154 155 149 153 152 139 136 131 122
270 261 239 234 228 239 263 254 247 229 182 165 194 230 126 157 148 152 155 155 164 161 171 172 170 174 178 179 177 175 173 171 161 157 142 161 167 151 158 151 163 181 181 165 161 160 159 152 144
265 261 251 249 254 259 265 222 232 238 188 182 210 200 112 158 160 157 159 160 159 162 168 171 172 175 180 183 182 182 181 178 167 168 185 178 188 181 185 171 174 181 182 166 180 188 187 192 192
263 258 255 243 244 241 94 252 298 251 202 114 187 188 172 169 161 159 161 165 163 168 165 170 177 174 181 183 185 186 188 188 182 184 202 206 198 206 196 193 184 191 200 208 207 206 214 224 233
212 239 237 231 240 244 94 274 169 274 198 198 182 25 121 158 161 159 165 173 171 172 172 176 183 174 182 184 186 191 195 198 198 201 207 211 220 211 214 193 210 213 227 217 217 212 223 241 261
222 233 234 243 275 290 323 307 306 235 201 195 176 134 147 162 166 173 174 177 179 177 177 182 181 182 186 182 193 195 201 204 206 212 224 220 225 214 213 234 223 227 233 231 227 233 239 252 271
234 239 232 241 265 302 307 297 259 255 228 209 202 177 168 169 176 184 186 186 183 185 180 187 184 183 190 184 199 190 203 201 207 213 217 205 210 218 218 230 237 233 235 242 255 255 261 264 244
257 228 243 244 259 307 288 290 270 254 245 353 205 181 180 181 187 190 191 192 188 192 198 187 194 188 193 191 193 193 202 199 204 209 211 212 212 219 219 219 235 236 232 234 228 241 249 254 263
233 259 234 243 257 270 285 273 274 270 261 258 160 181 189 194 195 199 198 197 195 196 199 204 192 199 197 195 196 197 199 204 203 209 213 213 217 223 217 219 220 227 230 237 240 251 257 263 262
227 246 258 243 243 259 269 271 257 260 254 249 230 204 206 205 205 203 203 201 204 201 201 209 207 200 200 202 202 201 200 207 204 208 216 214 214 222 221 222 226 227 231 237 240 241 254 258 262
261 252 248 249 242 246 283 264 243 254 250 262 243 235 222 218 213 213 212 210 208 208 203 207 214 213 202 209 206 205 207 206 210 211 212 225 217 220 221 226 232 235 239 239 243 248 251 254 261
230 240 249 242 222 225 216 259 244 247 242 246 250 246 237 228 224 220 218 216 213 208 206 205 220 215 216 213 212 215 213 213 214 218 222 222 226 221 223 223 227 229 234 242 246 249 246 256 255
232 240 231 249 241 210 213 250 245 246 228 242 249 246 241 240 234 228 223 220 216 211 209 208 221 218 218 218 217 221 223 224 222 220 221 227 226 225 223 233 238 238 238 242 242 246 251 253 264
224 235 248 244 205 217 233 239 246 256 245 248 250 247 244 241 239 232 228 223 220 215 210 210 223 217 220 219 216 219 220 222 222 222 222 222 227 223 224 225 231 232 240 245 250 251 257 269 270
299 255 252 227 163 231 240 243 245 245 226 249 246 238 242 242 246 237 221 222 220 215 211 211 217 218 218 217 216 217 218 224 222 222 226 224 224 227 230 233 231 236 242 255 260 261 261 273 295
242 238 229 276 256 238 261 250 255 256 251 248 247 253 246 246 245 242 237 228 219 220 217 214 215 215 218 221 219 221 223 222 223 225 228 227 230 235 238 240 236 235 251 258 253 268 271 271 275
226 230 232 242 314 265 277 264 251 252 242 241 240 247 250 250 248 245 238 231 227 219 221 220 217 215 215 213 228 227 226 228 225 230 230 231 231 234 238 240 241 246 250 248 264 265 266 274 277
234 221 243 258 258 246 257 280 240 226 221 230 237 238 244 249 250 244 234 225 229 228 217 223 222 219 217 213 218 227 224 223 231 235 236 238 236 235 239 243 246 245 247 253 255 266 267 262 271
245 252 212 231 244 271 248 259 249 235 223 237 212 219 237 245 253 246 242 227 221 221 227 220 212 219 219 215 213 227 231 233 230 229 235 232 230 226 227 234 237 240 246 254 262 261 267 266 264
224 195 210 234 242 250 242 225 245 228 224 198 144 129 86 24 21 245 245 239 236 236 234 231 225 219 214 217 215 217 229 229 223 219 227 224 227 226 221 223 227 233 241 247 252 259 259 262 262
193 179 180 203 205 244 198 226 236 192 126 297 287 146 56 52 40 287 245 230 229 222 221 219 212 203 204 205 210 215 219 220 222 233 232 230 219 231 232 231 232 236 241 244 247 252 256 254 255
199 197 204 216 219 247 149 237 227 275 77 125 131 113 72 57 49 63 64 199 207 198 197 198 203 213 212 211 211 214 218 221 221 224 232 224 237 245 248 247 245 251 246 246 250 253 257 258 259
196 223 231 311 184 293 207 252 198 172 175 177 157 115 69 60 63 70 75 90 115 158 176 183 193 200 201 203 205 208 212 214 219 226 228 223 229 230 233 237 243 245 246 250 253 254 253 257 259
220 197 213 216 235 235 241 234 259 192 194 185 165 128 111 92 80 78 84 95 102 113 124 145 160 169 185 191 188 192 196 202 210 211 219 227 227 229 231 232 232 235 243 250 255 256 254 256 260
215 216 236 226 235 247 255 247 2 183 189 187 145 144 129 111 96 87 88 94 99 104 112 119 127 136 147 156 163 175 182 187 185 189 194 198 201 204 209 218 229 236 240 245 251 255 259 262 262
245 214 207 215 204 235 283 263 66 80 126 135 154 144 129 118 109 99 95 95 102 105 110 112 117 122 125 131 138 144 149 154 160 167 175 183 195 205 214 222 232 242 252 257 262 264 265 268 268
Wind_Speed_850mb
33 14 10 9 12 13 22 7 10 6 5 12 17 9 12 15 5 6 22 20 41 44 48 44 37 30 34 34 35 33 32 34 35 32 26 23 18 14 12 9 9 16 19 18 16 18 21 26 23
16 9 7 12 13 19 16 13 14 12 8 13 16 9 8 14 13 18 26 36 43 43 47 44 39 35 35 33 34 33 34 35 34 31 25 20 15 13 10 12 14 17 23 22 20 23 25 25 24
16 9 19 9 21 22 2 10 9 17 15 20 13 10 3 11 13 25 18 42 46 41 43 43 41 41 39 32 33 35 37 33 31 31 26 20 15 14 15 18 18 20 23 21 20 22 22 22 21
8 10 13 16 24 25 12 10 2 17 16 15 15 12 8 9 14 17 35 45 44 40 43 42 42 43 39 34 33 34 35 30 29 26 23 17 14 14 18 19 20 20 21 20 18 20 18 18 18
13 16 17 22 30 19 5 5 6 16 20 23 18 9 7 8 16 26 44 45 44 48 41 45 44 41 38 35 33 33 31 23 18 18 19 16 14 16 17 13 10 18 19 17 15 15 14 13 12
16 12 18 26 27 19 10 8 10 18 17 17 18 8 12 11 23 33 40 43 40 42 36 48 46 39 37 36 33 31 27 19 16 10 7 17 19 22 22 18 12 8 14 15 13 12 10 8 7
15 14 27 28 18 12 16 2 15 18 17 17 2 16 11 18 24 34 37 39 39 38 39 46 47 44 37 35 36 32 28 22 18 11 12 18 17 18 18 21 18 13 10 12 11 9 8 6 5
7 6 27 19 23 25 5 6 7 19 20 6 7 9 14 27 32 33 36 35 40 37 38 41 43 45 43 40 38 35 32 28 24 19 19 16 21 19 19 17 27 22 14 11 11 11 10 9 8
8 11 20 29 18 17 1 9 1 5 6 14 14 4 14 37 39 37 38 38 41 41 41 39 38 39 38 39 40 36 32 30 29 27 26 24 16 20 17 16 22 26 24 15 16 16 14 11 10
24 20 28 17 14 14 19 14 14 10 22 19 17 10 28 35 44 46 50 45 43 45 44 43 41 39 44 39 39 38 37 36 34 33 32 30 18 16 16 20 21 21 18 14 16 17 14 11 6
19 31 29 20 20 22 23 23 14 17 21 25 27 25 33 36 41 46 48 44 45 48 52 44 47 43 42 42 36 33 32 33 34 33 32 27 24 28 34 23 24 22 21 17 17 18 15 10 16
24 31 40 21 17 15 26 29 22 23 19 6 7 33 35 39 42 45 44 41 45 44 52 57 44 47 43 39 36 32 32 32 30 32 32 31 31 29 22 20 18 19 20 20 21 19 21 22 22
29 37 37 44 25 23 32 34 34 32 22 9 4 24 33 34 37 37 38 38 41 46 46 58 54 50 48 43 39 35 33 33 29 29 32 31 27 26 24 23 21 21 20 20 20 20 22 23 23
11 32 45 38 32 17 25 39 16 27 27 23 16 20 29 33 36 35 39 42 44 46 47 50 61 53 47 47 40 39 36 32 30 31 31 33 27 27 25 24 23 22 23 22 22 21 21 23 25
23 19 24 41 43 27 18 39 39 47 27 19 28 25 24 32 34 41 39 41 42 42 43 47 56 61 52 50 46 40 36 33 33 35 33 33 33 29 26 24 23 22 23 25 26 27 29 28 27
21 26 33 25 36 17 25 34 29 51 40 38 38 30 35 30 35 38 39 39 40 41 44 44 51 59 61 56 48 47 41 38 36 34 35 37 35 32 29 29 28 25 25 26 25 25 25 27 25
18 28 38 34 23 26 31 25 36 24 16 36 42 42 38 32 35 34 39 40 40 41 41 45 49 51 56 57 48 45 43 44 41 37 35 35 37 35 33 31 31 27 30 30 30 29 29 29 30
19 31 36 31 27 25 34 32 29 5 15 33 33 29 37 44 39 35 35 39 40 40 42 42 44 48 50 52 51 44 43 43 42 38 36 34 33 32 31 28 24 25 27 29 33 34 32 30 28
12 18 24 22 9 11 35 37 36 41 26 24 19 25 38 38 37 33 33 35 38 41 44 46 45 47 50 53 55 54 51 47 41 38 40 38 36 34 32 31 28 28 28 24 24 23 26 28 26
27 22 21 22 7 11 26 29 33 33 38 48 45 45 35 28 29 34 35 39 38 41 44 47 46 42 47 50 56 60 58 45 38 41 43 42 39 36 36 35 33 32 29 27 26 28 27 31 27
30 31 24 9 7 18 23 36 39 36 47 45 43 47 45 46 37 25 25 30 35 38 44 46 46 46 46 46 48 53 38 40 44 52 47 44 41 41 41 39 35 34 31 30 31 32 35 37 35
32 27 29 26 11 13 7 15 23 30 27 25 40 43 42 38 32 32 31 21 24 36 39 43 45 46 47 49 49 53 59 48 49 39 40 40 42 44 41 39 37 33 31 36 37 36 37 37 41
26 25 20 24 22 23 33 16 24 21 21 23 19 11 17 15 17 19 18 29 39 39 40 48 44 43 46 50 54 53 57 46 33 30 34 38 39 38 38 37 37 36 36 39 39 38 38 39 39
8 14 13 15 18 23 36 27 22 26 24 13 12 8 4 3 1 8 16 22 29 39 43 45 44 47 44 45 49 50 49 46 36 44 44 35 38 36 40 43 42 42 41 40 39 37 36 37 42
26 25 11 12 13 19 5 25 33 9 7 3 6 2 7 8 4 2 5 10 15 20 28 35 34 38 47 49 48 53 52 50 45 48 44 39 42 49 46 46 42 43 44 45 43 40 37 38 40
35 34 12 14 16 19 12 17 9 4 10 6 5 8 9 11 8 4 1 3 7 11 18 29 43 47 49 54 57 56 54 52 47 45 45 45 46 48 48 47 48 49 44 43 43 41 41 42 43
27 37 31 10 4 5 14 17 6 11 10 10 9 8 9 11 11 10 8 8 7 7 13 20 28 35 39 44 45 46 48 48 47 43 38 37 38 39 41 40 37 33 33 35 35 35 35 38 40
33 25 24 15 13 18 20 26 19 18 21 15 14 11 11 12 12 15 16 17 18 18 17 17 20 24 30 33 31 32 33 35 35 32 31 31 32 29 30 27 26 25 24 26 27 27 30 34 38
28 22 19 20 20 16 21 22 11 18 19 19 12 12 14 15 15 16 18 22 27 28 28 29 28 28 27 28 30 30 30 29 28 27 26 25 23 22 21 20 20 21 22 23 23 23 25 26 28
38 40 33 13 20 21 14 11 3 10 7 14 18 19 17 17 16 17 19 22 27 29 31 33 33 33 33 31 30 28 27 25 23 21 19 17 16 15 15 16 16 16 16 17 18 19 20 21 23
Wind_Direction_850mb
359 24 171 208 233 232 248 201 249 181 196 162 164 166 192 349 2 18 139 151 158 158 167 171 168 168 159 154 156 159 155 152 149 149 156 160 157 150 164 167 160 158 155 147 131 119 104 127 131
354 19 216 255 248 216 220 168 191 188 103 160 160 179 189 108 70 115 142 146 153 158 167 171 169 166 157 156 155 155 148 147 148 156 165 169 172 178 181 164 150 149 132 128 127 122 111 122 128
356 311 258 227 234 254 10 141 190 132 149 166 181 237 111 93 115 139 158 152 154 164 161 172 168 165 165 162 157 151 149 157 161 172 179 180 185 180 168 157 154 147 142 137 135 128 120 122 125
315 245 243 245 233 246 289 76 355 152 160 189 218 194 122 98 143 156 154 152 153 160 173 173 168 167 168 170 162 157 159 166 176 173 178 181 177 176 165 157 154 139 139 142 137 136 127 121 120
288 254 250 232 246 247 243 301 285 191 184 184 205 171 111 132 134 145 150 154 157 170 173 174 169 169 173 174 170 167 169 173 186 172 180 173 159 139 142 139 154 155 149 153 152 139 136 131 122
270 261 239 234 228 239 263 254 247 229 182 165 194 230 126 157 148 152 155 155 164 161 171 172 170 174 178 179 177 175 173 171 161 157 142 161 167 151 158 151 163 181 181 165 161 160 159 152 144
265 261 251 249 254 259 265 222 232 238 188 182 210 200 112 158 160 157 159 160 159 162 168 171 172 175 180 183 182 182 181 178 167 168 185 178 188 181 185 171 174 181 182 166 180 188 187 192 192
263 258 255 243 244 241 94 252 298 251 202 114 187 188 172 169 161 159 161 165 163 168 165 170 177 174 181 183 185 186 188 188 182 184 202 206 198 206 196 193 184 191 200 208 207 206 214 224 233
212 239 237 231 240 244 94 274 169 274 198 198 182 25 121 158 161 159 165 173 171 172 172 176 183 174 182 184 186 191 195 198 198 201 207 211 220 211 214 193 210 213 227 217 217 212 223 241 261
222 233 234 243 275 290 323 307 306 235 201 195 176 134 147 162 166 173 174 177 179 177 177 182 181 182 186 182 193 195 201 204 206 212 224 220 225 214 213 234 223 227 233 231 227 233 239 252 271
234 239 232 241 265 302 307 297 259 255 228 209 202 177 168 169 176 184 186 186 183 185 180 187 184 183 190 184 199 190 203 201 207 213 217 205 210 218 218 230 237 233 235 242 255 255 261 264 244
257 228 243 244 259 307 288 290 270 254 245 353 205 181 180 181 187 190 191 192 188 192 198 187 194 188 193 191 193 193 202 199 204 209 211 212 212 219 219 219 235 236 232 234 228 241 249 254 263
233 259 234 243 257 270 285 273 274 270 261 258 160 181 189 194 195 199 198 197 195 196 199 204 192 199 197 195 196 197 199 204 203 209 213 213 217 223 217 219 220 227 230 237 240 251 257 263 262
227 246 258 243 243 259 269 271 257 260 254 249 230 204 206 205 205 203 203 201 204 201 201 209 207 200 200 202 202 201 200 207 204 208 216 214 214 222 221 222 226 227 231 237 240 241 254 258 262
261 252 248 249 242 246 283 264 243 254 250 262 243 235 222 218 213 213 212 210 208 208 203 207 214 213 202 209 206 205 207 206 210 211 212 225 217 220 221 226 232 235 239 239 243 248 251 254 261
230 240 249 242 222 225 216 259 244 247 242 246 250 246 237 228 224 220 218 216 213 208 206 205 220 215 216 213 212 215 213 213 214 218 222 222 226 221 223 223 227 229 234 242 246 249 246 256 255
232 240 231 249 241 210 213 250 245 246 228 242 249 246 241 240 234 228 223 220 216 211 209 208 221 218 218 218 217 221 223 224 222 220 221 227 226 225 223 233 238 238 238 242 242 246 251 253 264
224 235 248 244 205 217 233 239 246 256 245 248 250 247 244 241 239 232 228 223 220 215 210 210 223 217 220 219 216 219 220 222 222 222 222 222 227 223 224 225 231 232 240 245 250 251 257 269 270
299 255 252 227 163 231 240 243 245 245 226 249 246 238 242 242 246 237 221 222 220 215 211 211 217 218 218 217 216 217 218 224 222 222 226 224 224 227 230 233 231 236 242 255 260 261 261 273 295
242 238 229 276 256 238 261 250 255 256 251 248 247 253 246 246 245 242 237 228 219 220 217 214 215 215 218 221 219 221 223 222 223 225 228 227 230 235 238 240 236 235 251 258 253 268 271 271 275
226 230 232 242 314 265 277 264 251 252 242 241 240 247 250 250 248 245 238 231 227 219 221 220 217 215 215 213 228 227 226 228 225 230 230 231 231 234 238 240 241 246 250 248 264 265 266 274 277
234 221 243 258 258 246 257 280 240 226 221 230 237 238 244 249 250 244 234 225 229 228 217 223 222 219 217 213 218 227 224 223 231 235 236 238 236 235 239 243 246 245 247 253 255 266 267 262 271
245 252 212 231 244 271 248 259 249 235 223 237 212 219 237 245 253 246 242 227 221 221 227 220 212 219 219 215 213 227 231 233 230 229 235 232 230 226 227 234 237 240 246 254 262 261 267 266 264
224 195 210 234 242 250 242 225 245 228 224 198 144 129 86 24 21 245 245 239 236 236 234 231 225 219 214 217 215 217 229 229 223 219 227 224 227 226 221 223 227 233 241 247 252 259 259 262 262
193 179 180 203 205 244 198 226 236 192 126 297 287 146 56 52 40 287 245 230 229 222 221 219 212 203 204 205 210 215 219 220 222 233 232 230 219 231 232 231 232 236 241 244 247 252 256 254 255
199 197 204 216 219 247 149 237 227 275 77 125 131 113 72 57 49 63 64 199 207 198 197 198 203 213 212 211 211 214 218 221 221 224 232 224 237 245 248 247 245 251 246 246 250 253 257 258 259
196 223 231 311 184 293 207 252 198 172 175 177 157 115 69 60 63 70 75 90 115 158 176 183 193 200 201 203 205 208 212 214 219 226 228 223 229 230 233 237 243 245 246 250 253 254 253 257 259
220 197 213 216 235 235 241 234 259 192 194 185 165 128 111 92 80 78 84 95 102 113 124 145 160 169 185 191 188 192 196 202 210 211 219 227 227 229 231 232 232 235 243 250 255 256 254 256 260
215 216 236 226 235 247 255 247 2 183 189 187 145 144 129 111 96 87 88 94 99 104 112 119 127 136 147 156 163 175 182 187 185 189 194 198 201 204 209 218 229 236 240 245 251 255 259 262 262
245 214 207 215 204 235 283 263 66 80 126 135 154 144 129 118 109 99 95 95 102 105 110 112 117 122 125 131 138 144 149 154 160 167 175 183 195 205 214 222 232 242 252 257 262 264 265 268 268